FW3914 Weather Reports


Display with metric or nautical units.
time (UTC)temp
F
wind
direction
speed
MPH
gust
MPH
rain 1hr
in
rain 24hr
in
rain mn
in
humidity
%
barometer
mb
20260904060736 80 152 2.0 5.0 0.00 0.00 0.00 79 1013.6
20260904060231 80 216 3.0 6.0 0.00 0.00 0.00 79 1013.8
20260904055727 80 226 4.0 7.0 0.00 0.00 0.00 78 1013.8
20260904055221 80 194 2.0 5.0 0.00 0.00 0.00 78 1013.6
20260904054717 80 206 3.0 5.0 0.00 0.00 0.00 78 1013.6
20260904054213 80 212 3.0 6.0 0.00 0.00 0.00 78 1013.5
20260904053708 80 164 3.0 6.0 0.00 0.00 0.00 78 1013.6
20260904053208 80 203 2.0 4.0 0.00 0.00 0.00 78 1013.4
20260904052704 80 232 1.0 3.0 0.00 0.00 0.00 77 1013.5
20260904052200 80 230 0.0 4.0 0.00 0.00 0.00 77 1013.7
20260904051656 80 278 0.0 4.0 0.00 0.00 0.00 76 1013.7
20260904051150 80 255 2.0 4.0 0.00 0.00 0.00 76 1013.3
20260904050646 80 226 1.0 5.0 0.00 0.00 0.00 76 1013.5
20260904050137 80 242 2.0 3.0 0.00 0.00 0.00 76 1013.5
20260904045636 80 356 1.0 6.0 0.00 0.03 0.03 75 1013.5
20260904045131 80 320 2.0 4.0 0.00 0.03 0.03 75 1013.5
20260904044626 80 198 2.0 4.0 0.00 0.03 0.03 75 1013.4
20260904044123 80 205 0.0 5.0 0.00 0.03 0.03 75 1013.7
20260904043619 80 214 1.0 4.0 0.00 0.03 0.03 74 1013.6
20260904043115 81 235 2.0 5.0 0.00 0.03 0.03 74 1013.7
20260904042611 81 257 2.0 3.0 0.00 0.03 0.03 74 1013.6
20260904042106 81 177 2.0 5.0 0.00 0.03 0.03 73 1013.7
20260904041601 81 218 2.0 5.0 0.00 0.03 0.03 73 1013.6
20260904041057 81 210 2.0 5.0 0.00 0.03 0.03 74 1013.7
20260904040557 81 227 2.0 4.0 0.00 0.03 0.03 74 1013.6
20260904040054 81 186 3.0 5.0 0.00 0.03 0.03 74 1013.6
20260904035549 81 194 2.0 8.0 0.00 0.03 0.03 74 1013.8
20260904035049 81 226 0.0 6.0 0.00 0.03 0.03 74 1013.7
20260904034543 81 262 2.0 5.0 0.00 0.03 0.03 74 1013.6
20260904034039 81 236 2.0 6.0 0.00 0.03 0.03 74 1013.5
20260904033535 81 131 2.0 5.0 0.00 0.03 0.03 75 1013.8
20260904033032 81 254 2.0 5.0 0.00 0.03 0.03 76 1013.5
20260904032528 82 250 1.0 5.0 0.00 0.03 0.03 76 1013.8
20260904032026 82 196 3.0 5.0 0.00 0.03 0.03 75 1013.6
20260904031521 82 149 2.0 4.0 0.00 0.03 0.03 76 1013.8
20260904031017 82 212 2.0 5.0 0.00 0.03 0.03 76 1013.8
20260904030513 82 225 3.0 4.0 0.00 0.03 0.03 76 1013.4
20260904030008 82 242 1.0 4.0 0.00 0.03 0.03 76 1013.7
20260904025504 82 181 3.0 6.0 0.00 0.03 0.03 76 1013.6
20260904025004 82 208 2.0 6.0 0.00 0.03 0.03 76 1013.7
20260904024459 82 246 4.0 5.0 0.00 0.03 0.03 76 1013.5
20260904023955 82 194 1.0 5.0 0.00 0.03 0.03 75 1013.1
20260904023451 83 217 2.0 7.0 0.00 0.03 0.03 75 1013.0
20260904022950 83 132 3.0 4.0 0.00 0.03 0.03 74 1013.0
20260904022446 83 168 2.0 9.0 0.00 0.03 0.03 73 1013.1
20260904021943 83 233 3.0 9.0 0.00 0.03 0.03 73 1012.8
20260904021438 84 179 3.0 9.0 0.00 0.03 0.03 72 1012.9
20260904020933 84 250 3.0 5.0 0.00 0.03 0.03 71 1012.8
20260904020428 84 203 3.0 6.0 0.00 0.03 0.03 72 1012.3
20260904015926 84 227 3.0 6.0 0.00 0.03 0.03 74 1012.5
20260904015422 84 275 2.0 8.0 0.00 0.03 0.03 74 1012.3
20260904014921 84 235 3.0 8.0 0.00 0.03 0.03 74 1012.3
20260904014416 84 135 3.0 7.0 0.00 0.03 0.03 73 1012.2
20260904013912 85 125 3.0 7.0 0.00 0.03 0.03 73 1012.4
20260904013408 85 227 3.0 6.0 0.00 0.03 0.03 73 1012.3
20260904012903 85 145 2.0 6.0 0.00 0.03 0.03 73 1012.0
20260904012358 85 173 2.0 4.0 0.00 0.03 0.03 72 1012.4
20260904011857 85 201 2.0 4.0 0.00 0.03 0.03 72 1012.1
20260904011352 85 269 0.0 4.0 0.00 0.03 0.03 71 1012.0
20260904010847 85 182 1.0 5.0 0.00 0.03 0.03 71 1012.0
20260904010344 86 259 1.0 6.0 0.00 0.03 0.03 71 1012.0
20260904005839 86 168 1.0 5.0 0.00 0.03 0.03 70 1012.0
20260904005334 86 255 3.0 5.0 0.00 0.03 0.03 70 1012.0
20260904004829 86 192 2.0 5.0 0.00 0.03 0.03 69 1012.1
20260904004326 86 261 3.0 6.0 0.00 0.03 0.03 68 1012.2
20260904003821 87 339 3.0 5.0 0.00 0.03 0.03 67 1012.2
20260904003317 87 316 2.0 6.0 0.00 0.03 0.03 66 1012.2
20260904002812 87 306 2.0 9.0 0.00 0.03 0.03 65 1011.8
20260904002308 87 304 3.0 7.0 0.00 0.03 0.03 64 1011.9
20260904001807 88 274 3.0 6.0 0.00 0.03 0.03 62 1011.8
20260904001302 88 264 3.0 5.0 0.00 0.03 0.03 62 1011.8
20260904000757 88 285 1.0 9.0 0.00 0.03 0.03 61 1011.9
20260904000256 89 178 5.0 12.0 0.00 0.03 0.03 61 1012.0
20260903235751 89 214 5.0 9.0 0.00 0.03 0.03 61 1011.9
20260903235248 90 273 2.0 10.0 0.00 0.03 0.03 62 1011.7
20260903234746 90 358 5.0 8.0 0.00 0.03 0.03 61 1011.6
20260903234243 90 244 5.0 8.0 0.00 0.03 0.03 61 1011.8
20260903233739 91 185 5.0 11.0 0.00 0.03 0.03 60 1011.7
20260903233235 92 13 4.0 6.0 0.00 0.03 0.03 59 1011.6
20260903232733 92 326 3.0 6.0 0.00 0.03 0.03 59 1011.4
20260903232230 92 302 1.0 8.0 0.00 0.03 0.03 59 1011.5
20260903231728 93 224 5.0 12.0 0.00 0.03 0.03 59 1011.5
20260903231224 93 171 4.0 8.0 0.00 0.03 0.03 57 1011.6
20260903230719 93 239 2.0 10.0 0.00 0.03 0.03 59 1011.5
20260903230214 92 293 3.0 9.0 0.00 0.03 0.03 58 1011.6
20260903225710 93 245 3.0 9.0 0.00 0.03 0.03 58 1011.6
20260903225207 92 55 4.0 11.0 0.00 0.03 0.03 58 1011.6
20260903224703 93 12 1.0 9.0 0.00 0.03 0.03 57 1011.5
20260903224158 94 247 6.0 9.0 0.00 0.03 0.03 55 1011.4
20260903223653 94 274 2.0 6.0 0.00 0.03 0.03 56 1011.5
20260903223151 93 355 5.0 9.0 0.00 0.03 0.03 58 1011.5
20260903222646 94 16 3.0 9.0 0.00 0.03 0.03 56 1011.2
20260903222144 95 294 4.0 8.0 0.00 0.03 0.03 56 1011.6
20260903221640 94 47 2.0 7.0 0.00 0.03 0.03 56 1011.5
20260903221138 94 262 4.0 12.0 0.00 0.03 0.03 56 1011.4
20260903220637 94 212 2.0 10.0 0.00 0.03 0.03 55 1011.5
20260903220132 94 295 3.0 8.0 0.00 0.03 0.03 56 1011.8
20260903215631 95 29 4.0 8.0 0.00 0.03 0.03 55 1011.8
20260903215126 95 215 3.0 9.0 0.00 0.03 0.03 56 1011.6
20260903214625 94 199 3.0 7.0 0.00 0.03 0.03 56 1011.7
20260903214121 95 359 4.0 7.0 0.00 0.03 0.03 55 1011.9
20260903213615 95 228 6.0 10.0 0.00 0.03 0.03 56 1011.8
20260903213111 95 93 3.0 10.0 0.00 0.03 0.03 55 1011.9
20260903212607 94 248 5.0 8.0 0.00 0.03 0.03 57 1011.7
20260903212102 94 202 3.0 9.0 0.00 0.03 0.03 57 1012.0
20260903211557 94 296 3.0 9.0 0.00 0.03 0.03 58 1011.9
20260903211053 94 219 2.0 7.0 0.00 0.03 0.03 59 1011.8
20260903210548 94 263 3.0 9.0 0.00 0.03 0.03 58 1011.9
20260903210039 92 205 4.0 12.0 0.00 0.03 0.03 60 1012.0
20260903205537 93 114 3.0 8.0 0.00 0.03 0.03 59 1012.2
20260903205032 92 192 1.0 7.0 0.00 0.03 0.03 60 1012.1
20260903204528 93 228 5.0 10.0 0.00 0.03 0.03 60 1012.2
20260903204023 92 322 4.0 10.0 0.00 0.03 0.03 60 1012.4
20260903203519 93 186 1.0 10.0 0.00 0.03 0.03 60 1012.6
20260903203018 93 210 3.0 8.0 0.00 0.03 0.03 62 1012.6
20260903202514 92 203 4.0 8.0 0.00 0.03 0.03 61 1012.4
20260903202009 92 313 4.0 10.0 0.00 0.03 0.03 62 1012.5
20260903201458 92 181 3.0 13.0 0.00 0.03 0.03 62 1012.5
20260903200957 91 249 3.0 11.0 0.00 0.03 0.03 64 1012.8
20260903200452 91 207 5.0 7.0 0.00 0.03 0.03 63 1012.7
20260903195947 91 281 3.0 9.0 0.00 0.03 0.03 64 1012.9
20260903195443 90 231 7.0 12.0 0.00 0.03 0.03 65 1012.7
20260903194938 91 160 3.0 10.0 0.00 0.03 0.03 63 1012.9
20260903194433 91 229 4.0 11.0 0.00 0.03 0.03 65 1012.9
20260903193928 89 267 3.0 6.0 0.00 0.03 0.03 66 1012.8
20260903193425 89 219 5.0 12.0 0.00 0.03 0.03 67 1012.7
20260903192919 90 148 6.0 9.0 0.00 0.03 0.03 65 1012.9
20260903192416 89 151 7.0 9.0 0.00 0.03 0.03 67 1013.3
20260903191912 88 172 3.0 11.0 0.00 0.03 0.03 68 1013.2
20260903191408 89 248 5.0 11.0 0.00 0.03 0.03 67 1013.2
20260903190907 89 282 3.0 7.0 0.00 0.03 0.03 68 1013.4
20260903190402 90 186 4.0 14.0 0.00 0.03 0.03 66 1013.2
20260903185901 90 131 4.0 10.0 0.00 0.03 0.03 67 1013.5
20260903185356 89 187 3.0 11.0 0.00 0.03 0.03 68 1013.3
20260903184852 89 236 3.0 10.0 0.00 0.03 0.03 70 1013.4
20260903184349 87 218 5.0 10.0 0.00 0.03 0.03 72 1013.7
20260903183848 87 189 6.0 11.0 0.00 0.03 0.03 71 1013.7
20260903183344 88 227 3.0 9.0 0.00 0.03 0.03 70 1013.9
20260903182843 88 227 4.0 11.0 0.00 0.03 0.03 71 1014.0
20260903182342 87 261 2.0 7.0 0.00 0.03 0.03 74 1013.7
20260903181837 85 154 2.0 9.0 0.00 0.03 0.03 76 1013.8
20260903181332 85 254 4.0 9.0 0.00 0.03 0.03 77 1014.0
20260903180831 84 133 4.0 10.0 0.00 0.03 0.03 78 1014.0
20260903180326 83 188 6.0 12.0 0.00 0.03 0.03 79 1014.3
20260903175825 82 336 4.0 9.0 0.00 0.03 0.03 81 1014.3
20260903175325 82 258 4.0 10.0 0.00 0.03 0.03 81 1014.1
20260903174820 82 186 2.0 11.0 0.00 0.03 0.03 81 1014.4
20260903174315 82 158 4.0 17.0 0.00 0.03 0.03 82 1014.4
20260903173814 82 185 4.0 8.0 0.00 0.03 0.03 83 1014.2
20260903173310 82 229 2.0 6.0 0.00 0.03 0.03 84 1014.4
20260903172806 82 244 2.0 6.0 0.00 0.03 0.03 84 1014.4
20260903172301 82 228 3.0 9.0 0.00 0.03 0.03 84 1014.4
20260903171755 82 273 2.0 7.0 0.00 0.03 0.03 85 1014.6
20260903171252 82 190 3.0 11.0 0.00 0.03 0.03 85 1014.5
20260903170750 82 216 1.0 6.0 0.00 0.03 0.03 85 1014.7
20260903170246 81 225 3.0 10.0 0.00 0.03 0.03 85 1014.5
20260903165744 81 303 7.0 7.0 0.00 0.03 0.03 87 1014.6
20260903165239 81 240 0.0 7.0 0.00 0.03 0.03 87 1014.6
20260903164733 81 296 2.0 7.0 0.00 0.03 0.03 87 1014.6
20260903164229 81 301 5.0 10.0 0.00 0.03 0.03 88 1014.5
20260903163728 80 292 4.0 7.0 0.00 0.03 0.03 88 1014.4
20260903163225 80 251 3.0 6.0 0.00 0.03 0.03 89 1014.5
20260903162721 80 224 0.0 7.0 0.00 0.03 0.03 89 1014.4
20260903162217 81 52 2.0 7.0 0.00 0.03 0.03 88 1014.4
20260903161713 80 282 2.0 6.0 0.00 0.03 0.03 89 1014.4
20260903161208 81 203 2.0 7.0 0.00 0.03 0.03 89 1014.4
20260903160704 80 216 2.0 4.0 0.00 0.03 0.03 90 1014.3
20260903160203 80 219 2.0 7.0 0.00 0.03 0.03 91 1014.4
20260903155702 80 140 3.0 9.0 0.00 0.03 0.03 91 1014.2
20260903155201 80 291 1.0 5.0 0.00 0.03 0.03 92 1014.2
20260903154657 80 298 0.0 3.0 0.00 0.03 0.03 91 1014.2
20260903154153 80 262 2.0 4.0 0.00 0.03 0.03 91 1014.2
20260903153649 80 166 3.0 7.0 0.00 0.03 0.03 92 1014.2
20260903153144 80 196 3.0 5.0 0.00 0.03 0.03 92 1014.1
20260903152640 79 109 3.0 6.0 0.00 0.03 0.03 93 1014.0
20260903152137 79 231 1.0 6.0 0.00 0.03 0.03 93 1014.3
20260903151636 80 272 2.0 10.0 0.00 0.03 0.03 92 1014.1
20260903151131 80 286 3.0 9.0 0.00 0.03 0.03 92 1013.9
20260903150626 80 212 2.0 5.0 0.00 0.03 0.03 92 1014.2
20260903150121 80 249 1.0 7.0 0.00 0.03 0.03 92 1014.0
20260903145620 80 205 3.0 4.0 0.00 0.03 0.03 92 1014.2
20260903145116 80 224 2.0 5.0 0.00 0.03 0.03 92 1014.4
20260903144614 80 253 0.0 4.0 0.00 0.03 0.03 92 1014.2
20260903144111 80 274 0.0 6.0 0.00 0.03 0.03 92 1014.2
20260903143607 80 230 2.0 6.0 0.00 0.03 0.03 92 1014.3
20260903143102 80 241 2.0 5.0 0.00 0.03 0.03 92 1014.2
20260903142557 80 250 1.0 5.0 0.00 0.03 0.03 92 1014.2
20260903142054 80 238 0.0 4.0 0.00 0.03 0.03 93 1014.3
20260903141549 79 193 2.0 4.0 0.00 0.03 0.03 93 1014.5
20260903141044 79 227 2.0 8.0 0.00 0.03 0.03 93 1014.3
20260903140540 79 257 2.0 5.0 0.00 0.03 0.03 93 1014.2
20260903140035 79 307 2.0 7.0 0.00 0.03 0.03 93 1014.5
20260903135530 79 203 3.0 4.0 0.00 0.03 0.03 93 1014.2
20260903135025 79 268 3.0 4.0 0.00 0.03 0.03 94 1014.4
20260903134525 79 121 1.0 5.0 0.00 0.03 0.03 94 1014.1
20260903134021 78 215 2.0 6.0 0.00 0.03 0.03 94 1014.2
20260903133518 78 201 1.0 6.0 0.00 0.03 0.03 94 1014.3
20260903133013 78 194 2.0 6.0 0.00 0.03 0.03 94 1014.2
20260903132508 78 202 3.0 6.0 0.00 0.03 0.03 95 1014.0
20260903132004 78 223 2.0 5.0 0.00 0.03 0.03 95 1014.2
20260903131458 78 203 2.0 5.0 0.00 0.03 0.03 95 1014.0
20260903130957 78 128 2.0 5.0 0.00 0.03 0.03 95 1014.1
20260903130452 77 292 2.0 5.0 0.00 0.03 0.03 95 1014.0
20260903125951 77 209 1.0 6.0 0.00 0.03 0.03 95 1014.2
20260903125450 77 257 2.0 5.0 0.00 0.03 0.03 96 1014.0
20260903124945 77 216 1.0 4.0 0.00 0.03 0.03 96 1013.8
20260903124440 77 226 2.0 5.0 0.00 0.03 0.03 96 1013.7
20260903123939 77 196 3.0 6.0 0.00 0.03 0.03 96 1013.8
20260903123434 77 220 3.0 7.0 0.00 0.03 0.03 96 1014.2
20260903122932 77 201 0.0 5.0 0.00 0.03 0.03 96 1013.9
20260903122427 77 219 0.0 5.0 0.00 0.03 0.03 96 1013.7
20260903121926 77 259 1.0 4.0 0.00 0.03 0.03 96 1013.6
20260903121421 77 267 1.0 5.0 0.00 0.03 0.03 96 1013.7
20260903120917 77 226 1.0 5.0 0.00 0.03 0.03 96 1013.5
20260903120416 77 132 0.0 5.0 0.00 0.03 0.03 96 1013.6
20260903115915 77 236 2.0 4.0 0.00 0.03 0.03 96 1013.5
20260903115415 77 276 2.0 3.0 0.00 0.03 0.03 96 1013.6
20260903114915 77 240 2.0 4.0 0.00 0.03 0.03 96 1013.7
20260903114410 77 284 0.0 3.0 0.00 0.03 0.03 96 1013.6
20260903113906 76 290 2.0 5.0 0.00 0.03 0.03 96 1013.3
20260903113401 76 193 1.0 4.0 0.00 0.03 0.03 96 1013.2
20260903112857 76 287 1.0 3.0 0.00 0.03 0.03 97 1013.6
20260903112353 76 206 2.0 3.0 0.00 0.03 0.03 97 1013.5
20260903111852 76 247 2.0 3.0 0.00 0.03 0.03 97 1013.2
20260903111346 76 191 2.0 4.0 0.00 0.03 0.03 97 1013.6
20260903110842 76 291 1.0 4.0 0.00 0.03 0.03 97 1013.2
20260903110338 76 277 2.0 4.0 0.00 0.03 0.03 97 1013.4
20260903105832 77 189 1.0 2.0 0.00 0.03 0.03 97 1013.7
20260903105327 77 254 1.0 3.0 0.00 0.03 0.03 97 1013.4
20260903104826 76 269 1.0 3.0 0.00 0.03 0.03 97 1013.4
20260903104321 76 226 2.0 3.0 0.00 0.03 0.03 97 1013.3
20260903103818 76 228 0.0 3.0 0.00 0.03 0.03 97 1013.3
20260903103315 76 224 2.0 4.0 0.00 0.03 0.03 97 1013.1
20260903102810 76 269 2.0 3.0 0.00 0.03 0.03 97 1013.2
20260903102306 76 206 2.0 3.0 0.00 0.03 0.03 97 1013.5
20260903101803 76 241 2.0 3.0 0.00 0.03 0.03 97 1013.1
20260903101259 76 208 0.0 3.0 0.00 0.03 0.03 97 1013.3
20260903100754 76 168 2.0 4.0 0.00 0.03 0.03 97 1012.9
20260903100248 76 225 3.0 4.0 0.00 0.03 0.03 97 1013.1
20260903095745 76 223 2.0 4.0 0.00 0.03 0.03 97 1013.1
20260903095240 76 225 2.0 4.0 0.00 0.03 0.03 97 1013.2
20260903094735 76 81 1.0 3.0 0.00 0.03 0.03 97 1013.3
20260903094230 76 173 1.0 6.0 0.02 0.03 0.03 97 1013.3
20260903093725 76 266 2.0 4.0 0.02 0.03 0.03 97 1013.2
20260903093221 76 265 1.0 5.0 0.00 0.03 0.03 97 1013.4
20260903092720 76 307 2.0 3.0 0.00 0.03 0.03 98 1013.3
20260903092215 76 287 0.0 3.0 0.00 0.03 0.03 98 1013.3
20260903091714 77 182 0.0 3.0 0.02 0.03 0.03 98 1012.9
20260903091209 77 287 2.0 4.0 0.02 0.02 0.02 97 1013.2
20260903090704 77 205 0.0 3.0 0.05 0.02 0.02 97 1013.0
20260903090203 77 204 2.0 3.0 0.05 0.02 0.02 97 1013.2
20260903085702 77 215 1.0 4.0 0.09 0.02 0.02 97 1013.0
20260903085157 77 248 3.0 5.0 0.07 0.01 0.01 96 1012.9
20260903084655 77 193 2.0 3.0 0.00 0.00 0.00 96 1013.1
20260903084149 77 205 0.0 3.0 0.00 0.00 0.00 96 1012.8
20260903083645 76 222 2.0 3.0 0.00 0.00 0.00 96 1013.0
20260903083139 76 216 2.0 4.0 0.00 0.00 0.00 96 1012.8
20260903082633 76 237 1.0 3.0 0.00 0.00 0.00 96 1012.9
20260903082130 76 274 1.0 5.0 0.00 0.00 0.00 96 1012.8
20260903081624 76 22 3.0 6.0 0.00 0.00 0.00 95 1013.0
20260903081120 76 9 2.0 7.0 0.00 0.00 0.00 95 1013.2
20260903080616 76 33 1.0 4.0 0.00 0.00 0.00 94 1013.0
20260903080113 76 33 2.0 6.0 0.00 0.00 0.00 94 1012.8
20260903075607 76 21 0.0 4.0 0.00 0.00 0.00 94 1012.9
20260903075103 76 293 1.0 6.0 0.00 0.00 0.00 93 1012.9
20260903074601 76 255 1.0 4.0 0.00 0.00 0.00 94 1012.9
20260903074056 76 335 4.0 6.0 0.00 0.00 0.00 94 1012.7
20260903073551 76 8 4.0 7.0 0.00 0.00 0.00 93 1013.0
20260903073047 76 83 4.0 13.0 0.00 0.00 0.00 93 1012.9
20260903072543 77 36 4.0 8.0 0.00 0.00 0.00 92 1013.0
20260903072039 78 41 4.0 5.0 0.00 0.00 0.00 89 1013.0
20260903071536 78 234 3.0 7.0 0.00 0.00 0.00 86 1013.4
20260903071030 79 276 3.0 8.0 0.00 0.00 0.00 85 1013.0
20260903070530 79 15 5.0 11.0 0.00 0.00 0.00 84 1013.3
20260903070026 80 12 2.0 8.0 0.00 0.00 0.00 81 1013.3
20260903065520 80 305 2.0 9.0 0.00 0.00 0.00 80 1013.2
20260903065019 80 10 1.0 11.0 0.00 0.00 0.00 80 1013.3
20260903064519 80 50 2.0 9.0 0.00 0.00 0.00 80 1013.3
20260903064015 80 37 3.0 7.0 0.00 0.00 0.00 79 1013.1
20260903063510 81 49 3.0 9.0 0.00 0.00 0.00 79 1013.2
20260903063005 81 43 3.0 9.0 0.00 0.00 0.00 79 1013.0
20260903062500 81 77 2.0 4.0 0.00 0.00 0.00 79 1013.1
20260903061955 81 345 4.0 7.0 0.00 0.00 0.00 79 1013.1
20260903061450 81 19 2.0 3.0 0.00 0.00 0.00 78 1013.1
20260903060946 81 47 3.0 5.0 0.00 0.00 0.00 78 1013.1